• In Österreich
  • Länderverzeichnis
  • Für 7 Tage
  • Wassertemperatur
  • Satellitenkarten
  • Wetterkarte
  • News
  • Widgets
  • user-avatar
    Anmelden

    Stündliche Wetter Kalgoorlie

    Heute, 14 Dezember, Donnerstag

    Zeit Temperatur Niederschläge Wind Luftdruck Luftfeuchtigkeit
    00:00 +21°C° 0 mm 8 m/S 730 mmHg 48%
    01:00 +20°C° 0 mm 8 m/S 730 mmHg 52%
    02:00 +18°C° 0 mm 7 m/S 730 mmHg 57%
    03:00 +17°C° 0 mm 6 m/S 730 mmHg 59%
    04:00 +17°C° 0 mm 6 m/S 730 mmHg 62%
    05:00 +16°C° 0 mm 5 m/S 730 mmHg 64%
    06:00 +19°C° 0 mm 5 m/S 730 mmHg 60%
    07:00 +20°C° 0 mm 4 m/S 731 mmHg 55%
    08:00 +21°C° 0 mm 4 m/S 731 mmHg 55%
    09:00 +23°C° 0 mm 4 m/S 731 mmHg 49%
    10:00 +25°C° 0 mm 3 m/S 730 mmHg 42%
    11:00 +27°C° 0 mm 2 m/S 730 mmHg 36%
    12:00 +28°C° 0 mm 1 m/S 729 mmHg 32%
    13:00 +30°C° 0 mm 1 m/S 729 mmHg 28%
    14:00 +29°C° 0 mm 0 m/S 728 mmHg 25%
    15:00 +29°C° 0 mm 0 m/S 728 mmHg 24%
    16:00 +32°C° 0 mm 1 m/S 728 mmHg 23%
    17:00 +32°C° 0 mm 1 m/S 727 mmHg 21%
    18:00 +32°C° 0 mm 2 m/S 727 mmHg 22%
    19:00 +31°C° 0 mm 2 m/S 727 mmHg 22%
    20:00 +31°C° 0 mm 3 m/S 728 mmHg 23%
    21:00 +30°C° 0 mm 4 m/S 727 mmHg 24%
    22:00 +29°C° 0 mm 4 m/S 727 mmHg 25%
    23:00 +28°C° 0 mm 5 m/S 727 mmHg 26%

    Morgen, 15 Dezember, Freitag

    Zeit Temperatur Niederschläge Wind Luftdruck Luftfeuchtigkeit
    00:00 +28°C° 0 mm 5 m/S 727 mmHg 27%
    01:00 +27°C° 0 mm 5 m/S 727 mmHg 28%
    02:00 +26°C° 0 mm 5 m/S 727 mmHg 29%
    03:00 +26°C° 0 mm 5 m/S 727 mmHg 30%
    04:00 +25°C° 0 mm 5 m/S 727 mmHg 32%
    05:00 +23°C° 0 mm 4 m/S 727 mmHg 33%
    06:00 +26°C° 0 mm 5 m/S 727 mmHg 30%
    07:00 +28°C° 0 mm 5 m/S 727 mmHg 27%
    08:00 +29°C° 0 mm 6 m/S 728 mmHg 25%
    09:00 +32°C° 0 mm 6 m/S 727 mmHg 23%
    10:00 +34°C° 0 mm 5 m/S 727 mmHg 21%
    11:00 +36°C° 0 mm 5 m/S 726 mmHg 19%
    12:00 +37°C° 0 mm 5 m/S 725 mmHg 19%
    13:00 +38°C° 0 mm 4 m/S 725 mmHg 18%
    14:00 +40°C° 0 mm 4 m/S 724 mmHg 17%
    15:00 +39°C° 0 mm 3 m/S 724 mmHg 17%
    16:00 +38°C° 0 mm 3 m/S 723 mmHg 17%
    17:00 +38°C° 0 mm 2 m/S 723 mmHg 17%
    18:00 +38°C° 0 mm 3 m/S 723 mmHg 18%
    19:00 +37°C° 0 mm 3 m/S 723 mmHg 19%
    20:00 +36°C° 0 mm 4 m/S 723 mmHg 20%
    21:00 +35°C° 0 mm 4 m/S 723 mmHg 23%
    22:00 +34°C° 0 mm 5 m/S 723 mmHg 26%
    23:00 +32°C° 0 mm 5 m/S 723 mmHg 28%

    übermorgen, 16 Dezember, Samstag

    Zeit Temperatur Niederschläge Wind Luftdruck Luftfeuchtigkeit
    00:00 +29°C° 0 mm 6 m/S 723 mmHg 34%
    01:00 +28°C° 0 mm 7 m/S 723 mmHg 39%
    02:00 +26°C° 0 mm 8 m/S 722 mmHg 45%
    03:00 +24°C° 0 mm 8 m/S 722 mmHg 46%
    04:00 +24°C° 0 mm 7 m/S 722 mmHg 47%
    05:00 +23°C° 0 mm 7 m/S 722 mmHg 49%
    06:00 +27°C° 0 mm 6 m/S 722 mmHg 41%
    07:00 +30°C° 0 mm 6 m/S 722 mmHg 33%
    08:00 +34°C° 0 mm 6 m/S 723 mmHg 25%
    09:00 +36°C° 0 mm 7 m/S 722 mmHg 20%
    10:00 +40°C° 0 mm 8 m/S 722 mmHg 15%
    11:00 +44°C° 0 mm 9 m/S 721 mmHg 11%
    12:00 +44°C° 0 mm 9 m/S 721 mmHg 10%
    13:00 +45°C° 0 mm 10 m/S 720 mmHg 9%
    14:00 +46°C° 0 mm 11 m/S 720 mmHg 8%
    15:00 +46°C° 0 mm 11 m/S 719 mmHg 8%
    16:00 +44°C° 0 mm 11 m/S 719 mmHg 8%
    17:00 +44°C° 0 mm 11 m/S 719 mmHg 8%
    18:00 +42°C° 0 mm 9 m/S 719 mmHg 8%
    19:00 +40°C° 0 mm 8 m/S 719 mmHg 9%
    20:00 +38°C° 0 mm 6 m/S 719 mmHg 10%
    21:00 +36°C° 0 mm 7 m/S 720 mmHg 11%
    22:00 +35°C° 0 mm 7 m/S 720 mmHg 12%
    23:00 +34°C° 0 mm 8 m/S 720 mmHg 13%

    17 Dezember, Sonntag

    Zeit Temperatur Niederschläge Wind Luftdruck Luftfeuchtigkeit
    00:00 +32°C° 0 mm 8 m/S 720 mmHg 18%
    01:00 +29°C° 0 mm 8 m/S 720 mmHg 22%
    02:00 +27°C° 0 mm 8 m/S 720 mmHg 27%
    03:00 +26°C° 0 mm 8 m/S 720 mmHg 30%
    04:00 +24°C° 0 mm 8 m/S 720 mmHg 33%
    05:00 +22°C° 0 mm 7 m/S 720 mmHg 36%
    06:00 +23°C° 0 mm 7 m/S 721 mmHg 35%
    07:00 +24°C° 0 mm 8 m/S 721 mmHg 35%
    08:00 +24°C° 0 mm 8 m/S 721 mmHg 34%
    09:00 +27°C° 0 mm 8 m/S 721 mmHg 29%
    10:00 +29°C° 0 mm 9 m/S 721 mmHg 23%
    11:00 +32°C° 0 mm 10 m/S 721 mmHg 18%
    12:00 +33°C° 0 mm 10 m/S 721 mmHg 17%
    13:00 +33°C° 0 mm 10 m/S 720 mmHg 17%
    14:00 +34°C° 0 mm 11 m/S 720 mmHg 17%
    15:00 +33°C° 0 mm 11 m/S 720 mmHg 19%
    16:00 +32°C° 0 mm 11 m/S 720 mmHg 22%
    17:00 +32°C° 0 mm 11 m/S 719 mmHg 24%
    18:00 +28°C° 0 mm 11 m/S 720 mmHg 30%
    19:00 +26°C° 0 mm 11 m/S 720 mmHg 36%
    20:00 +22°C° 0 mm 11 m/S 721 mmHg 42%
    21:00 +21°C° 0 mm 10 m/S 721 mmHg 41%
    22:00 +19°C° 0 mm 10 m/S 721 mmHg 39%
    23:00 +19°C° 0 mm 9 m/S 721 mmHg 37%

    18 Dezember, Montag

    Zeit Temperatur Niederschläge Wind Luftdruck Luftfeuchtigkeit
    00:00 +18°C° 0 mm 9 m/S 721 mmHg 39%
    01:00 +17°C° 0 mm 8 m/S 721 mmHg 40%
    02:00 +17°C° 0 mm 8 m/S 720 mmHg 42%
    03:00 +16°C° 0 mm 8 m/S 720 mmHg 45%
    04:00 +15°C° 0 mm 8 m/S 720 mmHg 47%
    05:00 +15°C° 0 mm 8 m/S 720 mmHg 50%
    06:00 +16°C° 0 mm 10 m/S 720 mmHg 47%
    07:00 +17°C° 0 mm 11 m/S 720 mmHg 45%
    08:00 +18°C° 0 mm 12 m/S 721 mmHg 42%
    09:00 +18°C° 0,1 mm 13 m/S 720 mmHg 44%
    10:00 +19°C° 0,1 mm 13 m/S 720 mmHg 45%
    11:00 +19°C° 0,1 mm 14 m/S 720 mmHg 47%
    12:00 +20°C° 0,1 mm 14 m/S 720 mmHg 43%
    13:00 +20°C° 0,1 mm 15 m/S 719 mmHg 39%
    14:00 +22°C° 0,1 mm 15 m/S 719 mmHg 36%
    15:00 +23°C° 0 mm 14 m/S 720 mmHg 33%
    16:00 +23°C° 0 mm 14 m/S 720 mmHg 31%
    17:00 +23°C° 0 mm 13 m/S 720 mmHg 29%
    18:00 +22°C° 0 mm 11 m/S 721 mmHg 31%
    19:00 +22°C° 0 mm 9 m/S 722 mmHg 33%
    20:00 +21°C° 0 mm 8 m/S 722 mmHg 35%
    21:00 +20°C° 0 mm 8 m/S 723 mmHg 38%
    22:00 +20°C° 0 mm 8 m/S 723 mmHg 41%
    23:00 +18°C° 0 mm 8 m/S 724 mmHg 45%

    19 Dezember, Dienstag

    Zeit Temperatur Niederschläge Wind Luftdruck Luftfeuchtigkeit
    00:00 +17°C° 0 mm 8 m/S 724 mmHg 48%
    01:00 +17°C° 0 mm 7 m/S 724 mmHg 51%
    02:00 +16°C° 0 mm 7 m/S 724 mmHg 54%
    03:00 +16°C° 0 mm 7 m/S 724 mmHg 58%
    04:00 +15°C° 0 mm 6 m/S 725 mmHg 63%
    05:00 +14°C° 0 mm 5 m/S 725 mmHg 68%
    06:00 +16°C° 0 mm 6 m/S 726 mmHg 61%
    07:00 +17°C° 0 mm 7 m/S 727 mmHg 55%
    08:00 +18°C° 0 mm 7 m/S 727 mmHg 49%
    09:00 +21°C° 0 mm 7 m/S 727 mmHg 45%
    10:00 +22°C° 0 mm 7 m/S 728 mmHg 41%
    11:00 +24°C° 0 mm 7 m/S 728 mmHg 37%
    12:00 +26°C° 0 mm 7 m/S 727 mmHg 33%
    13:00 +27°C° 0 mm 7 m/S 727 mmHg 29%
    14:00 +29°C° 0 mm 6 m/S 727 mmHg 25%
    15:00 +29°C° 0 mm 6 m/S 727 mmHg 24%
    16:00 +29°C° 0 mm 6 m/S 727 mmHg 23%
    17:00 +29°C° 0 mm 6 m/S 727 mmHg 23%
    18:00 +28°C° 0 mm 6 m/S 728 mmHg 25%
    19:00 +26°C° 0 mm 6 m/S 729 mmHg 27%
    20:00 +24°C° 0 mm 6 m/S 729 mmHg 28%
    21:00 +23°C° 0 mm 6 m/S 730 mmHg 33%
    22:00 +21°C° 0 mm 7 m/S 730 mmHg 37%
    23:00 +20°C° 0 mm 7 m/S 730 mmHg 42%
    Mehr zeigen